Vorticity
3 0 1 3 5 6 5 4 3 3 3 2 2 1 2 3 3 3 2 3 4 4 3 4 6 6 5 4 5 8 7 7 11 10 8 14 19 19 19 16 12 7 5 6 8 10 10 9 8 8 9 11 10 11 13 10 10 9 4 6 10 6 6 10 14 16 11 11 15 9 6 8 10 9 7 5 4 6 6 5 8 11 9 5 4 6 9 7
12 8 3 1 2 4 5 6 4 4 3 2 3 2 2 3 2 3 2 2 4 4 3 4 6 6 5 4 5 8 7 7 10 11 9 13 19 21 18 14 10 7 6 7 6 6 6 6 5 8 9 7 8 7 9 9 9 9 6 3 7 7 5 6 7 11 14 14 15 13 12 10 8 10 9 7 5 5 5 5 7 9 8 6 6 5 6 7
13 14 12 7 2 1 3 5 6 5 4 3 2 2 2 2 2 3 3 2 3 4 3 3 5 6 6 4 4 7 8 7 10 11 9 11 19 22 19 14 8 7 7 4 4 5 4 6 8 10 8 5 7 7 7 9 8 9 8 5 8 8 6 7 6 6 8 10 11 13 13 10 7 9 10 7 7 8 8 7 5 7 8 8 8 6 4 6
9 10 13 14 11 5 2 2 5 6 6 5 3 2 2 2 2 2 3 3 2 4 3 2 5 6 6 5 4 6 8 7 9 12 10 10 18 25 19 11 8 7 7 6 6 5 4 7 9 8 7 6 7 6 8 9 8 10 9 8 9 10 9 9 8 7 6 6 8 9 9 10 9 12 14 9 10 13 9 8 7 6 8 9 9 9 6 4
10 9 9 11 14 13 8 3 2 3 6 6 5 3 2 2 2 1 2 3 3 3 4 2 4 6 6 5 4 5 9 7 9 13 11 9 16 25 20 10 10 9 7 9 7 6 8 7 6 7 7 7 6 3 4 6 6 10 11 11 11 11 11 10 10 10 9 7 6 7 8 9 9 11 13 12 11 9 5 7 10 9 10 10 9 9 8 5
11 11 10 9 9 12 14 11 5 2 3 5 7 6 3 2 2 1 1 3 3 3 3 3 3 5 6 6 4 4 9 7 9 13 10 10 15 23 22 12 9 7 5 7 4 3 3 4 7 8 9 7 5 2 -0 2 3 8 12 10 10 12 11 11 11 11 13 11 9 9 8 8 8 7 8 10 8 5 4 4 6 11 15 12 10 12 8 6
9 11 12 11 9 8 11 14 13 7 2 2 5 7 6 4 3 2 1 1 3 2 3 3 2 5 5 6 5 3 8 8 9 15 10 8 13 18 19 14 9 5 6 7 5 6 6 7 8 6 7 6 5 5 2 1 0 4 11 10 9 11 11 10 9 9 12 13 11 11 10 10 10 9 8 8 6 4 5 4 3 8 16 12 7 13 11 7
7 8 10 12 13 11 8 9 13 14 9 3 2 5 6 6 5 3 1 1 2 2 3 3 3 4 5 6 5 3 8 9 9 15 11 8 12 14 16 13 9 6 7 8 5 7 7 3 4 6 7 3 2 6 4 2 2 3 8 9 8 10 12 11 11 10 10 11 12 11 12 12 12 13 12 11 10 9 9 9 9 8 15 17 8 10 13 9
7 6 7 9 12 14 12 8 8 12 14 10 4 3 4 6 7 5 3 1 1 2 2 3 3 3 5 6 6 3 6 9 10 14 11 8 10 12 13 8 6 7 6 6 5 3 3 2 7 9 5 4 5 7 4 0 3 4 6 8 8 9 11 12 12 13 12 12 13 12 12 12 12 13 13 13 12 13 13 13 14 10 9 15 12 8 11 13
7 7 6 6 8 12 15 13 8 8 12 15 11 5 3 4 6 7 6 3 1 1 1 2 3 3 4 5 6 4 5 9 10 13 13 8 9 12 12 6 7 11 4 1 1 1 5 5 3 -1 -1 5 6 6 8 3 2 2 4 6 8 10 11 11 12 12 13 11 9 10 12 13 14 14 14 15 14 13 15 16 16 13 7 9 11 9 9 12
6 7 7 6 6 7 11 15 13 9 7 12 14 11 6 3 5 6 6 6 3 1 1 2 2 3 4 4 7 6 5 9 8 13 13 7 8 11 11 8 8 11 9 3 -1 1 6 -2 -8 -3 5 11 6 6 9 4 0 -1 -1 2 6 10 12 11 11 11 11 9 7 9 11 13 14 14 14 14 14 13 15 16 16 14 12 10 9 9 9 8
7 7 7 7 7 6 7 11 15 14 9 8 11 14 11 6 4 5 6 7 6 3 1 1 2 3 4 4 7 6 5 8 9 10 13 10 10 11 11 10 8 10 10 2 -3 4 10 3 3 11 12 10 4 2 6 2 0 -0 -2 0 3 8 12 11 9 9 9 8 7 8 8 10 10 10 10 10 12 13 15 17 17 15 15 13 11 10 9 7
8 8 7 7 7 7 6 7 11 15 13 9 8 11 14 11 6 4 5 6 6 6 2 1 2 3 4 5 5 6 5 7 9 7 12 14 10 10 11 8 10 13 9 4 1 3 8 8 10 13 7 5 3 2 5 1 0 2 0 1 2 5 11 10 7 7 7 6 6 6 6 9 9 9 11 10 9 10 11 14 17 16 15 14 13 12 10 8
10 9 8 8 7 7 7 6 7 12 15 14 9 7 11 14 11 6 4 5 6 7 5 2 2 3 5 4 3 6 6 5 9 8 9 12 9 8 8 5 7 10 6 6 7 4 7 7 4 6 6 5 4 4 5 -0 -0 3 2 2 3 5 9 8 7 6 5 4 3 3 6 7 7 9 10 10 9 8 8 10 13 14 15 16 17 17 15 12
10 10 10 9 8 8 7 7 6 8 12 16 14 9 7 11 14 11 6 5 5 6 7 5 2 2 4 5 3 6 7 5 9 9 7 12 12 7 6 4 6 8 4 5 8 5 9 9 2 5 8 6 4 2 3 1 0 2 3 6 6 7 8 7 8 7 6 6 4 3 6 7 6 6 7 8 9 8 8 9 10 11 12 14 16 18 19 18
8 10 11 10 9 9 8 8 7 6 8 12 16 14 9 7 11 14 10 6 5 5 7 7 5 2 4 6 3 5 7 5 8 10 10 12 11 8 6 4 8 10 5 8 14 11 14 14 7 6 6 4 2 -1 2 1 -2 2 6 9 8 6 5 5 6 6 8 10 7 6 6 7 6 5 5 7 9 8 8 8 8 9 10 10 10 12 16 17
8 9 10 11 11 10 9 8 8 8 7 8 13 16 15 9 7 12 15 10 6 6 6 6 7 3 4 6 3 5 8 6 8 8 7 7 9 14 11 5 9 8 5 13 15 12 20 17 5 6 4 -0 -2 -2 4 4 -2 0 6 10 11 9 6 5 4 4 10 12 8 7 6 6 6 5 4 4 5 6 7 7 6 7 8 10 10 8 9 10
8 8 9 10 11 11 10 9 9 8 8 7 8 13 18 16 9 8 13 15 9 6 6 5 7 5 4 7 4 5 9 7 5 6 6 7 12 19 14 7 6 7 15 21 13 11 22 11 -4 3 4 -2 -3 -0 6 3 -3 -2 2 6 8 11 9 8 7 8 13 11 5 6 5 4 5 3 3 3 3 4 4 5 4 6 5 6 8 8 8 7
8 8 8 8 10 12 11 11 10 9 9 8 6 8 14 20 17 9 9 15 13 8 6 4 6 7 5 6 5 4 7 6 2 5 9 7 11 15 13 11 9 15 24 19 13 14 16 5 -6 -0 3 -2 -2 4 4 -2 -2 2 2 1 3 7 7 5 3 5 12 12 4 4 6 6 5 3 3 3 4 4 4 4 3 3 3 2 4 5 6 6
9 8 8 8 8 11 12 12 11 9 9 9 8 6 8 15 20 16 9 11 14 11 7 5 5 8 6 5 6 4 4 5 0 4 8 5 8 11 12 14 14 24 24 10 10 13 11 6 -4 -5 -1 -3 -1 2 -1 -5 0 4 2 1 0 3 5 4 1 0 7 11 6 6 7 6 6 4 3 3 5 6 6 6 6 5 3 1 1 2 4 5
10 9 8 8 7 9 11 12 11 10 9 9 8 6 6 9 15 20 15 9 12 13 9 5 4 7 8 6 6 5 5 7 4 3 7 5 5 11 13 13 20 31 19 3 6 9 10 10 0 -2 -1 -3 -0 -0 -2 -2 -1 2 3 2 1 2 5 5 4 4 5 5 4 8 9 5 4 4 3 3 4 7 7 6 6 6 6 5 4 3 4 4
10 9 9 9 8 8 9 10 11 10 10 9 8 7 7 7 9 17 19 12 10 12 12 7 3 6 9 7 6 5 6 8 6 5 7 5 4 11 13 10 21 29 13 2 7 7 9 9 5 7 4 -0 2 -0 0 1 -1 2 5 6 6 2 2 5 6 5 7 5 0 4 10 6 2 4 4 3 4 6 7 5 3 2 3 5 5 5 5 5
11 10 10 10 9 8 8 9 10 9 9 9 7 6 8 8 7 11 18 18 11 10 14 9 4 5 7 8 7 6 6 5 7 8 7 7 7 9 12 11 16 19 12 7 5 4 6 4 4 7 4 1 2 0 2 4 1 0 3 7 6 -2 -1 3 3 1 6 9 0 -2 7 6 3 5 4 2 5 7 7 6 4 2 2 3 4 4 4 4
10 10 10 10 9 9 9 9 8 8 9 8 7 7 8 8 8 7 12 20 17 10 12 11 5 4 5 7 8 7 5 3 8 11 7 7 8 8 11 12 10 12 16 9 1 6 8 1 2 4 1 0 0 1 4 3 1 -1 1 6 4 1 4 1 0 3 4 9 5 -3 -1 2 2 4 2 -1 1 5 8 8 6 3 3 3 3 3 3 3
9 10 10 10 10 9 9 9 8 8 10 9 7 8 9 8 10 9 7 17 23 12 10 13 8 7 6 6 9 9 6 7 9 9 8 6 7 10 9 7 10 15 12 5 3 8 7 1 2 1 -3 -1 1 1 3 2 2 1 -1 1 3 6 9 3 1 5 2 5 9 2 -3 -0 1 2 2 -1 -2 0 3 7 8 5 3 4 3 2 1 2
9 9 10 10 10 9 9 9 9 9 10 9 9 9 10 9 10 12 7 13 23 17 11 11 9 8 5 4 10 10 7 8 8 6 7 7 6 10 9 5 13 16 4 4 7 2 3 4 1 -2 -5 1 5 1 3 5 4 4 -1 1 6 6 9 5 -1 4 5 4 11 8 -3 -2 3 4 3 0 -2 -1 -2 1 7 7 4 3 2 2 -1 -1
11 9 9 10 10 10 9 8 9 9 9 10 10 10 11 10 10 12 10 11 20 21 14 9 10 9 3 4 11 9 7 8 8 8 7 7 8 9 11 7 10 13 2 3 7 1 7 8 -1 0 1 8 10 2 5 8 2 3 1 2 4 0 7 7 -3 4 13 12 16 12 -2 -2 5 4 5 3 -2 -2 -2 -2 2 5 5 2 1 2 -0 -2
14 10 8 10 10 10 9 8 8 8 9 9 9 11 11 11 11 12 13 13 18 21 16 9 10 10 4 6 10 7 9 8 5 8 7 7 9 7 11 11 12 13 1 4 9 2 9 8 -3 -1 3 11 12 3 7 7 0 1 1 3 -0 -3 6 5 -5 1 13 18 18 10 2 1 4 2 3 6 2 0 1 0 1 2 4 4 3 1 -1 -0
15 13 9 8 9 10 9 8 8 8 9 8 8 10 10 10 11 10 13 16 18 21 20 11 8 10 6 5 9 8 11 10 5 6 6 5 7 9 13 13 14 11 -0 7 11 0 4 7 -1 2 8 11 10 6 9 5 -1 -2 -2 3 0 -1 6 3 -2 -1 8 18 15 9 6 -1 -1 2 1 4 4 2 2 2 1 2 3 4 6 2 -2 -0
14 16 12 8 8 10 9 9 9 8 7 7 8 9 10 11 10 9 16 20 18 19 21 15 7 10 9 3 7 10 9 11 9 7 7 6 5 9 15 11 9 7 4 11 11 0 1 4 5 12 13 10 8 9 9 2 -1 -3 -3 2 -1 1 7 3 2 1 5 17 12 7 9 0 -1 4 1 2 4 2 3 2 -0 3 5 3 5 6 -1 -1
13 16 15 9 7 9 9 9 9 8 7 7 8 9 9 11 9 11 17 18 16 16 19 18 8 8 10 5 5 10 9 10 10 7 9 11 5 6 15 9 2 3 9 18 16 3 -1 -0 8 19 16 12 10 6 0 -3 2 1 1 5 -1 -1 6 2 1 3 6 15 11 4 6 5 5 4 -0 1 1 0 4 2 -1 3 5 2 5 7 0 -1
13 15 18 13 7 8 9 9 8 8 8 8 8 9 9 9 11 14 16 15 15 15 15 17 12 7 8 4 2 7 9 8 11 10 9 13 9 8 14 9 2 2 6 17 17 3 -1 1 10 22 19 11 7 2 -4 -1 6 4 -0 3 0 1 6 4 3 4 5 9 8 4 5 7 3 -1 2 3 1 2 4 3 2 2 2 2 6 7 0 1
13 14 18 18 11 7 7 9 8 7 7 8 7 9 9 9 14 15 13 15 15 15 15 15 14 11 8 7 8 9 9 6 8 12 10 12 11 11 14 8 3 4 4 13 13 3 2 6 16 27 17 6 5 3 -1 3 8 5 -2 -1 -0 1 6 8 7 7 7 6 5 4 5 6 -0 -2 5 6 2 3 2 2 2 1 0 0 4 6 0 2
12 14 16 19 16 10 7 8 8 8 7 7 7 7 9 12 16 14 13 17 16 13 16 14 13 14 11 9 10 11 14 11 7 8 8 10 9 10 13 8 4 6 8 13 10 5 5 8 22 28 9 -0 7 6 3 5 5 3 -2 -3 -0 1 4 8 8 8 9 5 1 -0 0 1 -2 -2 3 4 5 6 4 5 6 4 3 -0 1 3 -0 2
10 13 14 17 19 15 9 6 7 8 7 8 7 7 12 16 15 11 12 18 18 13 12 14 15 17 14 10 9 10 14 14 13 10 6 7 7 8 10 10 7 5 9 14 11 6 3 9 24 22 3 -0 4 4 6 7 4 3 2 2 4 4 3 4 4 2 4 4 -0 -2 -2 0 1 0 -0 1 4 5 3 5 4 2 2 2 1 1 -1 2
8 11 14 16 18 17 15 9 6 6 7 8 8 7 12 15 11 11 13 17 18 12 9 14 16 15 14 11 11 12 10 8 12 12 9 8 7 7 8 9 10 8 8 13 12 6 1 10 24 18 5 2 -0 5 11 6 3 6 6 3 3 4 2 -0 2 2 4 4 0 0 2 3 5 6 3 2 1 -0 0 2 2 2 5 6 4 4 4 2
9 9 12 15 17 17 18 15 9 7 6 7 7 8 11 13 12 13 13 13 16 13 9 12 13 11 10 9 10 14 11 7 8 8 8 9 9 10 10 8 10 10 8 10 12 8 3 10 22 19 9 -1 -4 7 11 3 2 5 5 4 1 4 3 -4 0 6 6 2 -3 -1 3 1 4 7 7 6 3 -0 0 1 5 8 8 7 7 8 6 3
10 8 9 13 17 16 17 18 14 9 7 8 8 9 12 13 13 10 8 11 16 14 9 7 8 9 9 10 10 11 10 8 10 12 11 10 11 12 12 10 10 11 10 9 10 10 6 8 18 20 12 0 1 11 9 4 9 9 8 11 7 6 6 2 3 5 3 1 -2 -3 -0 -0 3 5 5 7 6 5 5 4 6 8 5 4 5 5 6 8
12 9 8 11 16 17 16 18 18 13 9 9 9 10 12 11 10 6 7 15 18 13 10 7 7 9 8 9 10 10 11 8 7 11 12 12 14 14 12 10 11 13 12 9 10 13 11 9 15 20 14 6 9 11 0 -5 5 9 6 7 8 9 7 4 2 0 -1 2 3 4 6 7 8 9 10 11 11 11 13 13 12 10 7 7 9 10 11 10
13 9 8 9 14 17 15 14 18 16 11 10 10 10 10 10 10 7 9 18 19 13 12 10 9 9 7 8 10 12 14 12 6 5 7 9 11 14 14 10 9 14 13 9 12 14 9 4 12 24 19 10 9 9 2 -3 5 13 8 -0 2 8 10 7 4 1 1 3 5 7 9 9 8 7 7 7 7 9 10 10 10 10 11 11 10 8 6 3
13 11 8 8 12 16 14 12 15 16 13 11 11 10 10 13 12 9 12 20 20 14 13 13 9 7 5 5 8 9 7 8 8 3 3 9 10 13 17 11 10 16 14 11 12 9 3 1 10 21 16 7 10 14 14 12 10 14 12 3 -1 1 4 7 9 9 9 8 7 5 4 4 1 0 3 5 7 10 10 9 8 7 7 5 3 4 5 6
13 12 8 8 11 14 14 11 12 14 12 11 11 10 12 15 12 11 17 19 16 13 14 14 7 3 4 2 3 7 4 3 7 4 5 13 12 11 14 12 14 19 17 17 15 6 3 2 5 14 12 5 6 10 10 6 2 2 5 5 3 1 -1 -1 5 13 17 14 8 5 4 1 -1 2 7 8 8 10 9 6 3 2 3 4 7 12 12 9
13 12 9 8 10 14 14 11 11 14 13 10 11 10 13 15 11 15 21 15 8 9 12 15 9 0 1 1 0 4 4 5 12 12 10 13 9 5 9 10 13 17 18 20 14 3 1 1 3 13 16 7 0 3 6 4 -2 1 6 6 7 8 5 0 2 11 17 16 11 8 8 6 5 7 8 6 6 5 3 2 3 5 5 7 9 9 5 1
12 12 11 8 9 13 15 13 12 16 16 13 12 10 12 14 11 18 23 10 1 5 8 11 11 2 -1 -2 -2 2 3 5 12 11 4 5 5 2 4 8 13 15 16 18 11 3 3 4 5 8 10 6 -1 -3 2 2 -2 0 6 7 7 7 5 3 4 7 11 12 12 11 12 12 8 7 6 3 2 3 5 8 9 5 3 6 9 8 7 6
12 12 11 9 9 12 15 14 11 15 18 15 12 10 11 15 12 18 24 9 -4 2 6 8 10 7 3 2 2 4 3 5 12 14 10 7 4 2 3 10 16 15 14 14 10 7 7 7 7 5 1 -0 -4 -8 -5 0 3 5 5 4 2 2 1 3 5 6 3 2 5 8 11 10 8 8 6 1 3 8 12 13 9 2 2 7 9 8 9 8
13 13 12 10 8 10 14 14 10 12 17 16 13 9 9 14 13 15 23 14 -2 -2 4 5 7 8 7 5 6 7 7 8 12 18 21 14 6 7 8 12 19 20 15 10 3 2 6 6 4 3 1 1 1 -1 -0 3 5 6 7 6 5 3 2 2 2 -1 -5 -5 -0 4 6 6 6 4 0 -1 5 9 9 7 5 3 5 7 6 7 9 7
14 12 12 10 8 9 13 15 11 11 15 15 14 10 7 13 14 13 21 21 6 -3 -1 2 4 5 5 3 2 4 7 10 12 17 20 11 4 8 9 12 21 20 12 7 1 -3 3 6 4 3 3 4 5 6 8 8 5 3 3 4 4 3 2 3 2 -2 -2 2 4 3 3 4 2 -2 -2 3 6 5 4 3 3 4 7 7 8 10 11 9
15 12 11 11 9 8 12 15 12 11 13 13 13 11 8 12 14 12 18 23 14 1 -1 1 2 3 7 8 6 6 6 10 15 18 15 6 3 7 8 13 22 18 8 7 5 -1 -1 4 7 9 10 7 6 6 5 3 1 2 4 5 4 4 3 3 5 4 4 6 4 0 -0 0 1 0 1 3 4 3 4 5 7 11 13 11 12 14 15 16
16 14 11 11 10 9 12 14 11 9 12 12 12 10 8 10 13 12 15 21 19 8 -0 -0 2 3 7 10 10 10 10 12 14 13 7 2 6 9 8 11 19 16 7 4 5 3 -1 -0 1 4 9 9 4 3 1 -4 -6 -2 6 8 7 7 7 4 3 3 3 4 2 -1 -2 -1 2 3 3 3 4 4 6 9 14 17 16 14 14 16 16 15
16 15 12 10 10 8 10 13 12 10 11 12 12 10 7 8 12 13 13 16 20 17 6 -0 1 1 2 6 8 8 9 12 14 14 7 -1 0 5 5 9 16 17 11 5 5 5 1 0 2 1 2 4 1 -2 -1 -3 -5 -2 2 3 3 7 13 13 8 2 -2 -3 -2 -2 -2 -0 2 4 5 5 5 6 9 13 16 14 13 12 13 12 8 4
14 16 13 11 10 8 8 11 12 11 11 13 13 10 8 7 9 13 13 12 17 21 15 5 -1 -2 0 4 4 4 10 13 12 15 11 -2 -5 1 2 4 11 14 14 9 5 7 5 3 7 8 6 7 4 1 1 0 -0 2 3 1 0 3 9 14 17 16 11 6 4 4 6 7 8 9 8 7 10 13 15 14 12 10 9 9 9 7 4 4
13 15 14 12 10 8 7 8 10 11 12 14 14 12 9 6 7 11 13 12 13 17 21 17 5 -3 -2 2 3 3 8 10 8 14 15 -0 -9 -3 3 6 4 -0 7 11 3 3 6 3 5 7 6 5 5 3 2 0 -0 2 3 2 2 4 3 3 4 8 10 12 11 12 13 13 12 11 11 13 16 16 13 11 10 9 8 7 8 7 6 7
Height
5886 5887 5887 5887 5888 5888 5888 5889 5889 5889 5889 5889 5889 5889 5889 5889 5889 5888 5888 5887 5887 5886 5885 5884 5884 5883 5882 5881 5880 5879 5877 5875 5874 5872 5871 5870 5869 5869 5868 5869 5869 5870 5872 5873 5874 5875 5875 5876 5876 5876 5876 5875 5874 5874 5875 5875 5875 5873 5873 5874 5872 5872 5874 5874 5875 5876 5877 5878 5879 5880 5881 5882 5882 5883 5883 5884 5885 5886 5887 5887 5889 5889 5890 5891 5892 5893 5893 5893
5884 5884 5885 5885 5886 5886 5886 5887 5887 5888 5888 5888 5888 5888 5888 5888 5888 5888 5887 5887 5886 5886 5885 5884 5883 5883 5882 5881 5880 5879 5877 5876 5874 5873 5872 5871 5870 5869 5869 5869 5870 5871 5873 5874 5875 5876 5877 5877 5878 5878 5877 5877 5876 5875 5875 5875 5875 5874 5874 5874 5873 5873 5874 5875 5876 5877 5877 5878 5879 5880 5881 5882 5883 5883 5883 5884 5885 5885 5886 5886 5888 5889 5889 5890 5891 5892 5893 5894
5881 5882 5882 5883 5883 5884 5884 5885 5885 5886 5886 5887 5887 5887 5887 5887 5887 5887 5887 5886 5886 5885 5884 5884 5883 5883 5882 5881 5880 5879 5878 5876 5875 5874 5873 5872 5871 5870 5870 5870 5871 5873 5874 5875 5876 5877 5878 5878 5879 5879 5878 5877 5877 5876 5876 5876 5875 5875 5874 5874 5874 5874 5874 5875 5876 5877 5878 5878 5879 5880 5882 5883 5883 5883 5884 5884 5885 5885 5885 5886 5887 5888 5889 5890 5891 5892 5892 5894
5879 5879 5880 5880 5881 5882 5882 5883 5883 5884 5884 5885 5885 5886 5886 5886 5886 5886 5886 5886 5885 5885 5884 5883 5883 5882 5882 5881 5880 5879 5878 5877 5875 5874 5874 5873 5872 5871 5871 5872 5873 5874 5875 5876 5878 5879 5879 5879 5879 5879 5879 5878 5878 5878 5877 5877 5876 5875 5875 5875 5875 5875 5875 5876 5877 5878 5879 5879 5880 5881 5882 5883 5884 5884 5884 5885 5886 5885 5885 5886 5886 5887 5888 5889 5890 5891 5892 5893
5876 5876 5877 5877 5878 5879 5880 5880 5881 5882 5882 5883 5883 5884 5884 5884 5885 5885 5885 5885 5885 5884 5884 5883 5883 5882 5882 5881 5880 5879 5878 5877 5876 5875 5874 5874 5873 5873 5873 5873 5874 5875 5877 5878 5879 5880 5880 5881 5881 5881 5881 5880 5879 5879 5878 5878 5877 5877 5876 5876 5876 5877 5877 5877 5877 5878 5879 5880 5881 5881 5882 5883 5884 5885 5885 5886 5886 5886 5886 5886 5886 5887 5888 5889 5889 5891 5892 5893
5874 5874 5874 5875 5875 5876 5877 5878 5878 5879 5880 5880 5881 5882 5883 5883 5883 5884 5884 5884 5884 5884 5883 5883 5882 5882 5881 5881 5880 5880 5879 5878 5877 5876 5875 5875 5874 5874 5874 5874 5875 5877 5878 5880 5881 5882 5882 5883 5883 5882 5882 5881 5880 5880 5879 5878 5878 5878 5878 5877 5877 5878 5879 5878 5878 5879 5880 5881 5881 5882 5883 5884 5885 5885 5886 5886 5886 5886 5887 5886 5886 5887 5887 5888 5889 5890 5892 5892
5871 5871 5872 5872 5873 5873 5874 5875 5875 5876 5877 5878 5879 5880 5880 5881 5882 5882 5883 5883 5883 5883 5883 5882 5882 5882 5881 5881 5880 5880 5879 5878 5877 5876 5876 5876 5875 5876 5876 5876 5877 5878 5879 5881 5882 5883 5884 5884 5884 5883 5883 5882 5882 5881 5880 5879 5879 5879 5879 5879 5879 5880 5880 5879 5879 5880 5881 5881 5882 5883 5884 5884 5885 5886 5886 5887 5886 5887 5887 5887 5886 5886 5887 5888 5889 5890 5892 5892
5869 5869 5869 5869 5870 5870 5871 5872 5873 5873 5874 5875 5876 5877 5878 5879 5880 5881 5881 5881 5882 5882 5882 5882 5881 5881 5881 5881 5880 5879 5879 5878 5877 5877 5876 5876 5877 5877 5877 5878 5878 5879 5881 5882 5883 5884 5885 5885 5885 5884 5884 5883 5883 5882 5881 5880 5879 5880 5880 5881 5881 5881 5881 5881 5881 5881 5882 5883 5883 5884 5884 5885 5885 5886 5887 5887 5887 5887 5887 5887 5887 5886 5886 5887 5889 5890 5891 5893
5867 5867 5867 5867 5867 5868 5868 5869 5870 5871 5872 5872 5874 5875 5876 5877 5878 5879 5880 5880 5881 5881 5881 5881 5881 5881 5881 5880 5880 5879 5879 5878 5878 5877 5876 5877 5877 5878 5879 5879 5880 5880 5881 5882 5883 5885 5885 5885 5885 5885 5885 5884 5884 5883 5882 5881 5881 5880 5881 5882 5882 5883 5883 5883 5882 5883 5883 5884 5885 5885 5885 5885 5886 5887 5887 5887 5887 5887 5887 5887 5888 5887 5887 5887 5888 5890 5891 5892
5864 5864 5864 5865 5865 5865 5866 5866 5867 5868 5869 5870 5871 5872 5873 5874 5875 5877 5878 5878 5879 5880 5880 5880 5880 5880 5880 5880 5880 5879 5879 5878 5878 5877 5877 5877 5877 5878 5879 5880 5880 5881 5882 5882 5883 5885 5885 5885 5886 5886 5886 5886 5885 5884 5884 5883 5882 5881 5882 5882 5883 5883 5884 5884 5884 5885 5885 5886 5886 5886 5886 5887 5888 5888 5888 5888 5888 5887 5888 5888 5888 5888 5887 5887 5888 5889 5890 5892
5862 5862 5862 5862 5862 5863 5863 5864 5864 5865 5866 5867 5868 5869 5870 5872 5873 5874 5875 5877 5877 5878 5879 5879 5879 5879 5880 5879 5879 5879 5879 5878 5878 5877 5877 5877 5877 5878 5879 5880 5880 5881 5881 5882 5883 5884 5885 5886 5887 5887 5887 5887 5887 5886 5885 5884 5884 5883 5883 5884 5883 5884 5885 5885 5886 5887 5887 5887 5887 5888 5888 5888 5889 5890 5889 5890 5889 5888 5888 5889 5889 5889 5889 5888 5888 5888 5889 5890
5859 5859 5859 5859 5860 5860 5861 5861 5862 5862 5863 5864 5865 5866 5867 5869 5871 5872 5873 5874 5875 5876 5877 5878 5878 5879 5879 5879 5879 5879 5878 5878 5878 5877 5877 5877 5877 5878 5879 5880 5880 5880 5881 5881 5882 5884 5885 5887 5888 5888 5888 5889 5888 5888 5886 5885 5886 5885 5885 5885 5885 5884 5885 5886 5887 5888 5889 5889 5889 5889 5889 5890 5890 5891 5891 5891 5890 5889 5889 5889 5890 5890 5889 5889 5889 5888 5889 5889
5856 5856 5857 5857 5857 5858 5858 5858 5859 5860 5860 5861 5862 5863 5865 5866 5868 5869 5871 5872 5873 5874 5875 5876 5877 5878 5878 5878 5878 5878 5878 5878 5878 5877 5877 5877 5877 5878 5879 5880 5880 5880 5880 5881 5882 5884 5886 5887 5888 5889 5889 5889 5889 5889 5888 5886 5887 5887 5887 5887 5887 5886 5886 5887 5889 5890 5890 5891 5891 5890 5890 5891 5891 5892 5892 5892 5891 5890 5890 5890 5891 5891 5890 5890 5890 5890 5889 5890
5853 5854 5854 5854 5854 5855 5855 5856 5856 5857 5858 5858 5860 5861 5862 5863 5865 5866 5868 5870 5871 5872 5873 5875 5876 5876 5877 5877 5877 5877 5877 5877 5877 5877 5876 5877 5877 5878 5879 5879 5880 5880 5880 5880 5881 5883 5885 5887 5889 5889 5890 5890 5889 5890 5889 5888 5888 5889 5889 5889 5888 5888 5887 5888 5890 5891 5892 5893 5892 5892 5892 5892 5892 5893 5893 5893 5893 5892 5892 5892 5892 5892 5892 5892 5892 5892 5891 5891
5850 5851 5851 5851 5852 5852 5853 5853 5854 5854 5855 5856 5857 5858 5859 5860 5862 5863 5865 5867 5869 5870 5871 5873 5874 5875 5875 5876 5876 5876 5877 5877 5876 5876 5876 5876 5876 5877 5878 5879 5879 5879 5879 5880 5881 5883 5885 5887 5889 5890 5890 5890 5890 5890 5890 5889 5889 5889 5890 5890 5890 5890 5889 5889 5891 5893 5894 5894 5894 5894 5893 5893 5893 5893 5894 5894 5894 5894 5894 5894 5894 5893 5893 5893 5893 5893 5893 5893
5847 5848 5848 5848 5849 5849 5850 5850 5851 5852 5852 5853 5854 5855 5856 5857 5859 5861 5862 5864 5866 5868 5869 5870 5872 5873 5874 5874 5875 5875 5876 5876 5876 5876 5876 5875 5875 5875 5876 5877 5878 5879 5879 5880 5881 5882 5884 5887 5890 5891 5891 5891 5890 5890 5890 5890 5890 5890 5890 5891 5891 5891 5890 5889 5892 5895 5895 5896 5896 5895 5895 5895 5895 5894 5895 5896 5896 5895 5895 5895 5895 5895 5894 5894 5894 5894 5895 5895
5844 5845 5845 5845 5846 5846 5847 5848 5848 5849 5850 5850 5851 5852 5853 5855 5856 5858 5860 5862 5864 5865 5867 5868 5870 5871 5872 5873 5873 5874 5875 5875 5875 5875 5875 5875 5874 5874 5875 5876 5877 5878 5879 5880 5881 5882 5884 5887 5889 5891 5891 5891 5890 5890 5891 5890 5890 5891 5891 5892 5892 5892 5891 5890 5892 5896 5897 5897 5897 5897 5896 5896 5896 5896 5896 5896 5897 5896 5896 5896 5896 5896 5896 5896 5896 5896 5896 5896
5841 5842 5842 5842 5843 5843 5844 5845 5846 5846 5847 5848 5849 5850 5851 5852 5854 5855 5857 5859 5861 5863 5864 5865 5867 5869 5870 5871 5872 5873 5874 5874 5874 5874 5874 5874 5874 5874 5874 5875 5877 5878 5879 5880 5880 5881 5883 5886 5889 5890 5891 5891 5890 5891 5891 5891 5891 5892 5892 5893 5893 5892 5893 5892 5893 5896 5898 5898 5899 5898 5898 5898 5898 5898 5897 5897 5897 5897 5897 5897 5897 5897 5897 5896 5897 5897 5897 5897
5838 5839 5839 5840 5840 5841 5841 5842 5843 5844 5844 5846 5847 5848 5849 5849 5851 5852 5854 5856 5858 5860 5861 5863 5865 5866 5868 5869 5870 5871 5872 5873 5873 5873 5873 5873 5874 5873 5873 5874 5876 5877 5878 5879 5880 5881 5883 5886 5889 5890 5890 5890 5890 5891 5891 5892 5892 5893 5893 5893 5893 5893 5893 5893 5893 5895 5898 5899 5900 5900 5900 5899 5899 5899 5898 5898 5898 5898 5898 5898 5898 5898 5898 5897 5897 5898 5898 5898
5835 5836 5836 5837 5837 5838 5838 5839 5840 5841 5842 5843 5844 5845 5846 5846 5847 5849 5851 5853 5855 5857 5858 5860 5862 5863 5865 5867 5868 5869 5870 5871 5871 5872 5872 5873 5873 5873 5872 5873 5875 5877 5879 5880 5881 5882 5884 5886 5889 5890 5890 5890 5890 5891 5892 5892 5893 5894 5895 5894 5894 5894 5894 5894 5894 5896 5898 5900 5901 5901 5901 5901 5901 5900 5899 5899 5899 5899 5899 5899 5899 5898 5898 5898 5898 5898 5899 5899
5832 5832 5833 5834 5834 5835 5835 5836 5837 5838 5839 5841 5842 5842 5843 5844 5844 5845 5847 5849 5851 5853 5855 5857 5859 5861 5863 5865 5866 5867 5868 5869 5870 5870 5871 5872 5872 5872 5872 5873 5874 5877 5879 5880 5881 5883 5885 5887 5889 5889 5889 5889 5890 5891 5892 5892 5893 5895 5896 5896 5896 5895 5896 5896 5895 5896 5898 5900 5902 5902 5902 5902 5902 5901 5901 5900 5900 5900 5900 5900 5900 5899 5899 5899 5898 5899 5899 5899
5829 5829 5830 5831 5832 5832 5833 5833 5834 5835 5837 5838 5839 5840 5840 5841 5842 5842 5844 5846 5848 5850 5852 5854 5856 5858 5860 5863 5864 5865 5867 5867 5868 5869 5870 5870 5872 5873 5873 5873 5874 5876 5878 5879 5881 5883 5885 5887 5888 5888 5888 5889 5890 5891 5892 5893 5894 5895 5896 5897 5897 5897 5897 5898 5897 5897 5898 5900 5902 5902 5903 5903 5903 5903 5902 5901 5901 5901 5901 5901 5901 5901 5900 5900 5899 5899 5899 5900
5826 5826 5827 5828 5829 5829 5830 5831 5831 5832 5834 5835 5836 5837 5837 5838 5839 5840 5841 5843 5845 5847 5849 5851 5853 5855 5857 5860 5862 5864 5865 5865 5866 5867 5868 5869 5871 5872 5872 5873 5873 5875 5877 5879 5881 5883 5885 5886 5886 5887 5888 5889 5889 5890 5892 5893 5894 5895 5896 5897 5898 5898 5898 5899 5899 5899 5899 5901 5902 5903 5903 5903 5903 5903 5903 5903 5902 5902 5903 5903 5902 5902 5901 5901 5901 5900 5900 5900
5823 5823 5824 5825 5826 5827 5827 5828 5829 5830 5830 5832 5833 5834 5835 5835 5836 5837 5838 5840 5842 5844 5847 5848 5850 5852 5855 5858 5860 5862 5862 5863 5865 5866 5867 5868 5869 5871 5872 5872 5872 5874 5877 5879 5881 5883 5884 5884 5885 5887 5888 5888 5889 5890 5891 5893 5894 5895 5896 5897 5898 5898 5898 5899 5899 5900 5900 5901 5902 5903 5904 5904 5904 5904 5904 5904 5904 5904 5904 5903 5903 5903 5902 5902 5902 5901 5901 5901
5819 5820 5820 5821 5823 5824 5825 5825 5826 5827 5827 5829 5830 5831 5832 5833 5834 5835 5836 5838 5840 5842 5844 5846 5848 5850 5852 5855 5858 5859 5861 5862 5864 5865 5866 5866 5868 5870 5871 5871 5872 5874 5876 5878 5880 5882 5883 5883 5885 5886 5887 5888 5889 5890 5891 5893 5894 5895 5896 5897 5898 5898 5899 5899 5900 5900 5901 5901 5902 5903 5904 5904 5904 5904 5904 5904 5904 5904 5904 5904 5904 5904 5903 5903 5903 5902 5902 5901
5816 5817 5817 5818 5819 5821 5822 5822 5823 5824 5825 5826 5827 5828 5829 5830 5831 5832 5834 5836 5838 5839 5842 5844 5845 5847 5850 5854 5855 5857 5859 5860 5862 5863 5864 5865 5866 5868 5870 5870 5872 5874 5875 5877 5879 5881 5881 5883 5885 5886 5887 5888 5890 5891 5892 5893 5895 5896 5897 5897 5898 5898 5899 5899 5900 5901 5901 5901 5902 5903 5904 5905 5905 5904 5904 5904 5904 5905 5905 5905 5905 5904 5904 5903 5903 5903 5902 5902
5812 5814 5814 5815 5816 5817 5819 5820 5821 5821 5822 5823 5824 5825 5827 5828 5829 5830 5831 5833 5835 5836 5839 5841 5842 5844 5848 5851 5853 5854 5857 5858 5860 5862 5863 5863 5864 5866 5867 5870 5872 5873 5874 5876 5878 5879 5880 5882 5884 5885 5887 5889 5890 5891 5892 5894 5895 5896 5897 5897 5898 5899 5899 5900 5900 5900 5901 5901 5902 5903 5904 5905 5905 5905 5905 5905 5905 5905 5904 5905 5905 5904 5904 5904 5903 5903 5902 5901
5809 5811 5811 5812 5813 5814 5815 5817 5818 5819 5819 5821 5822 5823 5824 5825 5826 5827 5828 5830 5832 5833 5836 5838 5840 5842 5846 5849 5851 5852 5853 5855 5858 5860 5860 5862 5863 5865 5866 5869 5871 5872 5873 5874 5877 5879 5880 5881 5883 5885 5887 5889 5890 5890 5891 5893 5894 5895 5896 5896 5897 5898 5899 5899 5899 5899 5900 5901 5902 5903 5904 5905 5905 5905 5905 5905 5905 5905 5904 5904 5904 5904 5904 5904 5903 5903 5902 5901
5805 5807 5808 5809 5810 5811 5812 5814 5815 5816 5817 5818 5819 5820 5822 5823 5823 5825 5826 5828 5829 5830 5833 5835 5837 5840 5843 5846 5848 5849 5850 5853 5855 5856 5857 5859 5861 5864 5866 5867 5869 5870 5871 5873 5876 5877 5878 5880 5882 5884 5887 5888 5888 5889 5890 5892 5892 5893 5894 5895 5896 5897 5897 5897 5897 5898 5899 5900 5901 5902 5903 5904 5904 5904 5904 5905 5905 5904 5904 5904 5904 5904 5903 5903 5903 5902 5902 5901
5802 5804 5805 5805 5807 5808 5809 5811 5812 5813 5814 5815 5817 5818 5819 5820 5821 5822 5824 5825 5826 5827 5830 5832 5834 5837 5840 5843 5846 5847 5848 5850 5852 5854 5855 5858 5860 5862 5863 5865 5866 5867 5869 5871 5874 5875 5877 5879 5880 5883 5886 5887 5887 5888 5889 5890 5890 5891 5892 5894 5895 5896 5896 5896 5896 5896 5897 5899 5900 5900 5901 5902 5903 5903 5903 5903 5903 5903 5903 5903 5903 5903 5903 5902 5902 5901 5901 5900
5799 5800 5802 5802 5804 5805 5806 5808 5809 5810 5812 5813 5814 5815 5817 5818 5819 5820 5821 5822 5823 5825 5827 5829 5831 5834 5837 5840 5843 5844 5845 5847 5849 5852 5854 5856 5857 5859 5861 5863 5864 5865 5867 5869 5872 5873 5875 5877 5879 5883 5885 5885 5886 5887 5888 5889 5889 5889 5891 5892 5893 5894 5894 5894 5894 5895 5896 5898 5899 5899 5900 5900 5901 5902 5902 5902 5902 5902 5902 5902 5902 5902 5902 5901 5901 5901 5900 5899
5795 5797 5799 5800 5800 5802 5803 5805 5806 5808 5809 5811 5812 5813 5814 5816 5817 5818 5818 5819 5820 5822 5824 5826 5828 5831 5834 5836 5839 5840 5842 5845 5847 5850 5852 5854 5856 5857 5859 5861 5863 5864 5865 5868 5871 5872 5874 5877 5879 5881 5883 5883 5885 5886 5887 5888 5888 5888 5889 5891 5892 5892 5892 5893 5893 5894 5896 5898 5898 5898 5898 5898 5900 5901 5901 5901 5902 5901 5901 5901 5901 5901 5901 5900 5900 5899 5899 5898
5792 5794 5796 5797 5797 5798 5801 5802 5804 5805 5807 5808 5809 5811 5812 5814 5815 5815 5816 5817 5818 5820 5822 5824 5826 5829 5831 5833 5836 5838 5840 5842 5844 5847 5850 5852 5854 5856 5858 5859 5861 5863 5865 5868 5870 5872 5874 5876 5878 5880 5881 5882 5883 5885 5887 5888 5888 5888 5889 5890 5890 5891 5891 5892 5893 5893 5895 5897 5897 5897 5896 5897 5899 5900 5900 5901 5901 5900 5900 5900 5900 5900 5900 5900 5899 5899 5898 5897
5789 5791 5792 5793 5794 5796 5797 5799 5801 5803 5804 5805 5807 5808 5810 5812 5812 5812 5814 5815 5816 5818 5820 5822 5825 5827 5829 5831 5834 5836 5838 5840 5842 5844 5846 5849 5851 5853 5855 5857 5859 5862 5864 5867 5869 5870 5872 5874 5876 5879 5880 5881 5882 5885 5887 5887 5888 5888 5888 5889 5889 5890 5890 5891 5892 5892 5894 5895 5895 5895 5894 5895 5898 5899 5899 5900 5900 5900 5899 5899 5899 5899 5899 5899 5898 5898 5897 5896
5787 5788 5789 5790 5792 5793 5794 5796 5798 5800 5801 5803 5804 5806 5808 5809 5809 5810 5811 5813 5814 5816 5818 5821 5823 5825 5827 5829 5831 5833 5835 5837 5839 5841 5844 5846 5849 5851 5853 5856 5858 5860 5862 5865 5866 5868 5870 5872 5875 5877 5878 5880 5882 5884 5885 5885 5887 5887 5887 5888 5889 5889 5890 5891 5891 5891 5892 5892 5893 5893 5893 5893 5895 5897 5897 5898 5899 5899 5898 5898 5898 5898 5898 5897 5897 5896 5896 5895
5784 5785 5786 5787 5789 5789 5791 5793 5795 5797 5799 5800 5802 5804 5806 5806 5806 5808 5809 5810 5812 5814 5816 5819 5821 5823 5825 5827 5829 5832 5833 5834 5836 5839 5841 5844 5846 5848 5851 5854 5856 5859 5861 5863 5865 5867 5869 5872 5874 5876 5877 5879 5881 5882 5883 5884 5885 5885 5886 5888 5888 5889 5889 5890 5890 5890 5890 5890 5890 5891 5891 5892 5893 5895 5896 5897 5897 5897 5897 5896 5896 5896 5896 5895 5894 5894 5894 5893
5781 5782 5783 5784 5785 5786 5788 5790 5792 5794 5796 5797 5800 5802 5803 5803 5804 5805 5806 5808 5810 5812 5814 5817 5819 5821 5823 5825 5827 5830 5831 5833 5834 5836 5839 5841 5843 5846 5848 5851 5854 5857 5859 5863 5865 5867 5869 5872 5873 5874 5876 5878 5879 5880 5881 5882 5883 5884 5886 5887 5887 5888 5888 5889 5890 5889 5889 5889 5889 5889 5890 5891 5892 5893 5894 5894 5895 5895 5894 5894 5894 5894 5894 5893 5892 5892 5891 5891
5778 5780 5780 5781 5782 5784 5785 5787 5789 5791 5793 5795 5797 5799 5800 5801 5802 5803 5804 5806 5808 5809 5812 5815 5817 5819 5821 5823 5825 5827 5829 5831 5833 5835 5837 5839 5842 5845 5847 5849 5852 5855 5858 5860 5862 5865 5867 5870 5871 5872 5874 5875 5877 5879 5880 5880 5881 5882 5884 5885 5886 5887 5887 5887 5888 5888 5888 5888 5888 5888 5889 5890 5890 5891 5891 5892 5892 5892 5892 5892 5892 5892 5891 5891 5890 5889 5889 5888
5775 5777 5778 5779 5780 5781 5783 5784 5786 5788 5790 5792 5794 5796 5798 5799 5800 5800 5802 5804 5806 5808 5810 5813 5816 5818 5820 5821 5823 5825 5827 5829 5831 5833 5835 5838 5841 5843 5845 5848 5850 5854 5857 5858 5860 5862 5865 5867 5868 5869 5871 5873 5875 5877 5878 5879 5880 5881 5882 5883 5883 5884 5885 5886 5886 5886 5886 5886 5886 5886 5887 5888 5889 5889 5889 5889 5889 5890 5890 5890 5890 5890 5889 5889 5888 5887 5886 5886
5772 5774 5775 5776 5778 5779 5780 5782 5783 5785 5788 5790 5791 5793 5795 5796 5797 5798 5800 5802 5804 5806 5809 5812 5815 5816 5818 5820 5821 5823 5825 5827 5829 5831 5833 5835 5838 5841 5844 5846 5848 5851 5854 5856 5858 5860 5862 5864 5865 5866 5869 5872 5874 5875 5876 5878 5879 5880 5881 5881 5882 5883 5883 5884 5884 5884 5884 5884 5884 5884 5885 5886 5887 5887 5887 5887 5887 5887 5888 5888 5888 5887 5887 5886 5885 5885 5884 5883
5770 5771 5773 5774 5775 5776 5777 5779 5780 5783 5785 5786 5788 5791 5792 5794 5796 5797 5798 5801 5803 5805 5808 5811 5813 5815 5816 5818 5819 5821 5823 5825 5827 5829 5831 5833 5836 5839 5842 5844 5846 5848 5850 5852 5855 5857 5859 5861 5863 5865 5867 5870 5872 5873 5875 5877 5877 5878 5879 5880 5880 5881 5881 5881 5882 5882 5882 5882 5882 5882 5883 5884 5884 5885 5885 5885 5885 5886 5886 5885 5885 5885 5884 5883 5883 5882 5881 5880
5767 5769 5770 5772 5773 5774 5775 5776 5778 5780 5781 5783 5786 5788 5791 5792 5793 5795 5797 5800 5802 5804 5806 5809 5811 5813 5814 5816 5816 5818 5820 5823 5825 5828 5830 5832 5834 5837 5839 5841 5843 5846 5848 5851 5854 5856 5858 5860 5862 5863 5865 5867 5869 5871 5873 5874 5875 5876 5876 5877 5877 5878 5879 5879 5880 5879 5879 5880 5880 5880 5881 5881 5882 5883 5883 5883 5883 5883 5883 5883 5883 5882 5881 5880 5879 5878 5877 5876
5764 5766 5768 5769 5771 5771 5772 5774 5775 5777 5779 5781 5784 5786 5789 5790 5791 5793 5795 5798 5800 5802 5804 5806 5809 5810 5812 5813 5814 5816 5818 5821 5824 5827 5829 5830 5833 5835 5837 5838 5840 5843 5846 5849 5852 5855 5856 5858 5859 5861 5863 5865 5867 5868 5870 5871 5872 5873 5873 5874 5875 5876 5877 5877 5877 5877 5878 5878 5878 5878 5879 5879 5880 5881 5881 5881 5881 5880 5880 5880 5879 5879 5878 5877 5876 5875 5874 5872
5762 5764 5765 5767 5768 5769 5770 5772 5774 5775 5777 5780 5782 5784 5787 5788 5789 5791 5794 5796 5798 5799 5801 5804 5806 5808 5810 5811 5812 5814 5817 5820 5823 5825 5827 5829 5831 5832 5834 5835 5838 5840 5843 5847 5850 5852 5853 5855 5857 5858 5860 5862 5864 5865 5867 5868 5869 5870 5871 5872 5873 5873 5874 5875 5875 5876 5876 5876 5876 5876 5877 5877 5878 5878 5878 5878 5878 5878 5877 5877 5876 5875 5874 5873 5872 5871 5869 5868
5759 5761 5763 5765 5766 5767 5768 5770 5772 5774 5776 5778 5780 5782 5784 5786 5787 5790 5792 5793 5795 5797 5799 5801 5804 5806 5809 5810 5812 5815 5817 5820 5822 5824 5826 5828 5829 5830 5832 5834 5836 5839 5842 5845 5848 5851 5852 5855 5856 5857 5858 5860 5861 5863 5865 5866 5868 5869 5870 5870 5871 5872 5872 5873 5874 5874 5875 5875 5874 5875 5875 5875 5875 5876 5876 5876 5875 5875 5874 5873 5873 5872 5871 5869 5868 5867 5865 5864
5757 5759 5761 5762 5764 5765 5766 5768 5770 5772 5774 5776 5778 5780 5782 5783 5785 5787 5789 5791 5793 5795 5797 5799 5803 5805 5807 5810 5813 5815 5817 5819 5821 5822 5825 5826 5828 5829 5832 5834 5836 5838 5840 5842 5845 5848 5850 5853 5855 5856 5858 5860 5862 5864 5864 5865 5866 5867 5868 5869 5870 5870 5871 5871 5872 5872 5873 5873 5872 5873 5873 5873 5873 5873 5872 5872 5872 5871 5870 5869 5869 5867 5866 5865 5864 5862 5861 5860
5755 5756 5758 5760 5761 5763 5764 5766 5768 5769 5772 5774 5775 5777 5779 5781 5783 5785 5787 5789 5791 5793 5795 5798 5801 5804 5806 5809 5811 5813 5815 5818 5820 5821 5823 5825 5826 5828 5830 5832 5835 5837 5838 5839 5842 5845 5847 5850 5853 5855 5857 5859 5861 5862 5863 5863 5864 5865 5866 5867 5868 5868 5869 5869 5869 5870 5870 5870 5870 5870 5869 5869 5870 5869 5869 5868 5868 5867 5866 5865 5864 5863 5862 5861 5859 5858 5857 5855
5753 5754 5756 5757 5759 5761 5763 5764 5766 5767 5769 5771 5772 5775 5777 5778 5780 5782 5784 5787 5789 5791 5793 5796 5799 5802 5804 5807 5809 5811 5814 5817 5819 5821 5822 5824 5826 5827 5829 5831 5833 5835 5836 5838 5840 5842 5845 5848 5851 5853 5855 5856 5858 5859 5860 5861 5862 5863 5864 5864 5865 5866 5866 5866 5866 5866 5866 5866 5867 5867 5866 5866 5866 5866 5865 5865 5864 5863 5862 5861 5860 5859 5858 5857 5856 5854 5853 5851
5751 5752 5753 5755 5757 5759 5761 5762 5763 5764 5766 5768 5769 5772 5774 5776 5778 5780 5781 5784 5786 5788 5791 5794 5797 5800 5803 5805 5808 5810 5813 5815 5818 5820 5821 5823 5825 5827 5828 5830 5832 5833 5835 5837 5839 5840 5843 5846 5848 5850 5852 5854 5855 5857 5858 5859 5860 5861 5861 5862 5862 5863 5863 5863 5863 5863 5863 5863 5863 5863 5863 5863 5863 5862 5862 5861 5860 5859 5858 5857 5857 5856 5855 5854 5852 5851 5849 5848
5748 5750 5751 5753 5754 5756 5758 5760 5761 5762 5764 5766 5767 5770 5772 5773 5776 5777 5779 5781 5783 5786 5789 5793 5795 5798 5800 5803 5806 5809 5811 5814 5816 5818 5820 5822 5824 5826 5827 5828 5830 5833 5835 5836 5838 5839 5841 5844 5846 5848 5850 5851 5853 5854 5855 5856 5857 5858 5858 5859 5860 5860 5860 5861 5861 5861 5861 5861 5860 5860 5860 5859 5859 5859 5858 5857 5856 5855 5854 5854 5853 5852 5851 5850 5849 5847 5846 5844
5746 5748 5749 5751 5752 5754 5756 5757 5758 5760 5762 5764 5766 5767 5769 5771 5773 5775 5776 5778 5781 5783 5787 5790 5793 5796 5798 5800 5803 5806 5809 5812 5814 5816 5818 5820 5822 5824 5825 5827 5829 5831 5834 5835 5837 5838 5840 5842 5843 5845 5847 5849 5850 5851 5852 5853 5854 5855 5855 5856 5857 5857 5858 5858 5858 5858 5858 5858 5858 5857 5856 5856 5855 5855 5854 5853 5852 5852 5851 5850 5849 5848 5847 5845 5844 5843 5841 5839
5744 5745 5747 5748 5750 5751 5753 5754 5756 5757 5759 5761 5763 5765 5767 5768 5771 5773 5774 5776 5778 5781 5784 5787 5790 5793 5795 5797 5800 5804 5807 5809 5811 5813 5816 5818 5820 5822 5824 5825 5826 5829 5832 5834 5835 5837 5838 5840 5842 5843 5845 5846 5847 5848 5849 5850 5850 5851 5852 5853 5854 5854 5855 5855 5855 5855 5854 5854 5854 5853 5852 5852 5851 5851 5850 5850 5849 5848 5847 5845 5844 5843 5842 5841 5839 5838 5836 5835